Regional Weather Roundup
Issued by NWS

Home | Current Version | Previous Version | Graphics & Text | Print | Product List | Glossary On
Versions: 1 2 3 4 5 6 7 8 9 10 11 12 13 14 15 16 17 18 19 20 21 22 23 24 25 26 27 28 29 30 31 32 33 34 35 36 37 38 39 40 41 42 43 44 45 46 47 48 49 50
000
ASUS43 KBIS 030702
RWRND

NORTH DAKOTA REGIONAL WEATHER ROUNDUP
NATIONAL WEATHER SERVICE BISMARCK ND
100 AM CST SAT DEC 03 2016

NOTE: "FAIR" INDICATES FEW OR NO CLOUDS BELOW 12,000 FEET WITH NO
SIGNIFICANT WEATHER AND/OR OBSTRUCTIONS TO VISIBILITY.


NDZ001>003-009>011-017-030800-
NORTHWEST NORTH DAKOTA

CITY           SKY/WX    TMP DP  RH WIND       PRES   REMARKS
WILLISTON      CLEAR     24  20  84 S6        29.99F WCI  17
MINOT          CLEAR     22  20  92 SE6       30.06F WCI  14
MINOT AFB      CLOUDY    24  22  90 SE8       30.05F WCI  15
$$

NDZ018>021-031>035-040>046-030800-
SOUTHWEST NORTH DAKOTA

CITY           SKY/WX    TMP DP  RH WIND       PRES   REMARKS
BISMARCK       CLEAR     24  22  91 S9        30.15F WCI  14
DICKINSON      CLEAR     16  14  92 S10       30.02F WCI   4
GARRISON         N/A     26  24  92 S10       30.08F WCI  16
$$

NDZ004>008-012>016-024-026-027-054-030800-
NORTHEAST NORTH DAKOTA

CITY           SKY/WX    TMP DP  RH WIND       PRES   REMARKS
GRND FRKS AFB  CLOUDY    28  20  72 SW9       30.23F WCI  20
DEVILS LAKE    CLOUDY    25  20  81 S12       30.18F WCI  14
$$

NDZ022-023-025-028>030-036>039-047>053-030800-
SOUTHEAST NORTH DAKOTA

CITY           SKY/WX    TMP DP  RH WIND       PRES   REMARKS
FARGO          NOT AVBL
JAMESTOWN      CLOUDY    24  20  84 S7        30.20F WCI  16
$$




USA.gov is the U.S. government's official web portal to all federal, state and local government web resources and services.